Find Starlink 5278

NORAD ID: 54164 Int'l Des: 2022-141 Owner: SPXS Country: US Constellation: starlink operational
LEOCIRCULAR

实时位置

正在加载3D地球...

关于 Starlink 5278

正在加载描述...

即将过境

Passes for default location (London). Set your location on the main map for personalized predictions.

高度历史

Loading altitude history...

两行轨道根数

1 54164U 22141H 26126.17935437 .00000054 00000-0 21481-4 0 9995
2 54164 53.2164 106.2463 0001273 81.9657 278.1479 15.08836478194534
Epoch: May 6, 2026 • Age: 10 hours

当前状态

高度 545.0 km
速度 7.60 km/s
星下点 51.11°N, 94.47°E
发射日期 Oct 28, 2022
运行时间 3.5 years
类型 internet

技术详情

分类 Payload
质量 305.00 kg
干质量 290.00 kg
总质量 305.00 kg
长度 0.20 m
直径 2.80 m
跨度 9.00 m
形状 Box + pan
制造商 SPXS
平台类型 Starlink
阶段状态 In Orbit
所有者/国家 SPXS/US

Most Searched